Marshfield, WI

1:39 AM CDT on July 27, 2016 (GMT -0500)
Marshfield Municipal

Weather History for KMFI - January, 2013

Change the Weather History Date:

Wednesday, January 16, 2013

  Actual Average Record
Temperature  
Mean Temperature 23 °F -  
Max Temperature 30 °F 22 °F 45 °F (1973)
Min Temperature 15 °F 2 °F -31 °F (1972)
Degree Days  
Heating Degree Days 42    
Moisture  
Dew Point 17 °F    
Average Humidity 75    
Maximum Humidity 86    
Minimum Humidity 56    
Precipitation  
Precipitation 0.00 in - - ()
Sea Level Pressure  
Sea Level Pressure 29.82 in    
Wind  
Wind Speed 13 mph (West)    
Max Wind Speed 17 mph    
Max Gust Speed 22 mph    
Visibility 9 miles    
Events Snow    
Averages and records for this station are not official NWS values.
T = Trace of Precipitation, MM = Missing Value Source: NWS Daily Summary

Daily Weather History Graph

Daily Weather History Graph

Search for Another Location

Airport or City:

Trip Planner

Search our weather history database for the weather conditions in past years. The results will help you decide how hot, cold, wet, or windy it might be!

Date:

Astronomy

Jan. 16, 2013 Rise Set
Actual Time 7:33 AM CST 4:48 PM CST
Civil Twilight 7:01 AM CST 5:20 PM CST
Nautical Twilight 6:25 AM CST 5:56 PM CST
Astronomical Twilight 5:50 AM CST 6:31 PM CST
Moon 9:54 AM CST (1/16) 10:56 PM CST (1/16)
Length of Visible Light 10h 19m
Length of Day
9h 14m
Waxing Crescent, 28% of the Moon is Illuminated
Jan 16
Waxing Crescent
Jan 18
First Quarter
Jan 26
Full
Feb 3
Last Quarter
Feb 10
New

Hourly Weather History & Observations

Time (CST) Temp. Windchill Dew Point Humidity Pressure Visibility Wind Dir Wind Speed Gust Speed Precip Events Conditions
12:54 AM 19.0 °F 6.1 °F 10.9 °F 71% 29.93 in 10.0 mi SSW 12.7 mph - N/A   Clear
1:54 AM 19.0 °F 6.8 °F 10.9 °F 71% 29.90 in 10.0 mi SSW 11.5 mph - N/A   Clear
2:54 AM 19.0 °F 6.1 °F 10.9 °F 71% 29.86 in 10.0 mi SSW 12.7 mph - N/A   Clear
3:54 AM 19.0 °F 6.1 °F 10.9 °F 71% 29.81 in 10.0 mi SSW 12.7 mph - N/A   Clear
4:54 AM 19.9 °F 5.7 °F 10.9 °F 68% 29.75 in 10.0 mi SSW 16.1 mph - N/A   Mostly Cloudy
5:54 AM 21.9 °F 9.2 °F 12.0 °F 66% 29.73 in 10.0 mi SSW 13.8 mph - N/A   Overcast
6:54 AM 23.0 °F 11.7 °F 15.1 °F 72% 29.71 in 9.0 mi SW 11.5 mph 20.7 mph 0.00 in Snow Light Snow
7:54 AM - - - N/A% 29.65 in - North - - N/A   Unknown
8:54 AM - - - N/A% 29.66 in - North - - N/A   Unknown
9:01 AM 23.0 °F - 19.4 °F 86% 29.66 in 2.5 mi North - - N/A   Overcast
9:09 AM 23.0 °F 11.1 °F 19.4 °F 86% 29.66 in 6.0 mi WSW 12.7 mph 17.3 mph N/A   Overcast
9:17 AM 24.8 °F 12.4 °F 19.4 °F 80% 29.66 in 8.0 mi WSW 15.0 mph 19.6 mph N/A   Overcast
9:54 AM 24.1 °F 12.5 °F 19.9 °F 84% 29.72 in 7.0 mi WSW 12.7 mph 19.6 mph N/A   Overcast
10:54 AM 25.0 °F 14.2 °F 21.0 °F 85% 29.72 in 9.0 mi WSW 11.5 mph - N/A   Overcast
11:54 AM 28.0 °F 18.1 °F 23.0 °F 81% 29.72 in 9.0 mi West 11.5 mph - N/A   Overcast
12:54 PM 28.9 °F 19.8 °F 24.1 °F 82% 29.73 in 9.0 mi West 10.4 mph - N/A   Overcast
2:54 PM 30.9 °F 21.2 °F 26.1 °F 82% 29.78 in 10.0 mi NW 12.7 mph - N/A   Overcast
3:01 PM 30.2 °F 18.5 °F 26.6 °F 86% 29.72 in 10.0 mi NW 17.3 mph - N/A   Overcast
3:54 PM 30.9 °F 19.8 °F 25.0 °F 79% 29.82 in 10.0 mi WNW 16.1 mph 21.9 mph N/A   Overcast
4:54 PM 30.0 °F 24.1 °F 26.1 °F 85% 29.86 in 8.0 mi WNW 5.8 mph - 0.00 in   Mostly Cloudy
5:02 PM 30.2 °F 21.9 °F 26.6 °F 86% 29.81 in 10.0 mi WNW 9.2 mph - N/A   Mostly Cloudy
5:42 PM 28.4 °F 16.2 °F 23.0 °F 80% 29.85 in 9.0 mi NW 17.3 mph 21.9 mph 0.00 in   Overcast
5:54 PM 28.0 °F 17.0 °F 21.0 °F 75% 29.92 in 10.0 mi NW 13.8 mph 21.9 mph 0.00 in   Overcast
6:54 PM 26.1 °F 15.0 °F 17.1 °F 69% 29.97 in 10.0 mi NW 12.7 mph - N/A   Clear
7:54 PM 24.1 °F 13.1 °F 12.0 °F 60% 29.94 in 10.0 mi NW 11.5 mph - N/A   Clear
8:54 PM 21.0 °F 7.1 °F 9.0 °F 60% 30.00 in 10.0 mi NW 16.1 mph 19.6 mph N/A   Clear
9:54 PM 18.0 °F 5.4 °F 6.1 °F 60% 30.08 in 10.0 mi NW 11.5 mph - N/A   Clear
10:54 PM 16.0 °F 3.6 °F 5.0 °F 62% 30.12 in 10.0 mi NW 10.4 mph - N/A   Clear
11:54 PM 15.1 °F 1.8 °F 1.9 °F 56% 30.15 in 10.0 mi NW 11.5 mph - N/A   Clear